HARMAJA Weather Reports


time (UTC)temp
C
wind
direction
speed
KPH
gust
KPH
rain 1hr
cm
rain 24hr
cm
rain mn
cm
humidity
%
barometer
mb
20260506104720 6 219 30.6 33.8 0.00 0.00 0.00 75 1014.1
20260506102720 6 218 32.2 37.0 0.00 0.00 0.00 75 1014.1
20260506100720 6 217 27.4 33.8 0.00 0.00 0.00 74 1013.9
20260506094720 6 214 25.7 30.6 0.00 0.00 0.00 77 1013.8
20260506092720 6 220 27.4 30.6 0.00 0.00 0.00 76 1013.6
20260506090720 6 219 25.7 29.0 0.00 0.00 0.00 76 1013.5
20260506084720 6 210 22.5 25.7 0.00 0.00 0.00 75 1013.4
20260506082720 6 221 24.1 27.4 0.00 0.00 0.00 77 1013.4
20260506080720 6 221 24.1 29.0 0.00 0.00 0.00 75 1013.2
20260506072720 6 226 19.3 22.5 0.00 0.00 0.00 72 1013.0
20260506070720 6 224 19.3 20.9 0.00 0.00 0.00 73 1012.8
20260506060720 5 248 19.3 20.9 0.00 0.00 0.00 73 1012.5
20260506050719 4 259 19.3 20.9 0.00 0.00 0.00 73 1011.8
20260506044720 4 259 19.3 20.9 0.00 0.00 0.00 75 1011.6
20260506042719 3 267 17.7 20.9 0.00 0.00 0.00 76 1011.5
20260506040719 3 266 17.7 20.9 0.00 0.00 0.00 76 1011.3
20260506034719 3 266 17.7 22.5 0.00 0.00 0.00 78 1011.2
20260506032719 3 261 17.7 20.9 0.00 0.00 0.00 77 1010.9
20260506030719 3 258 17.7 20.9 0.00 0.00 0.00 78 1010.7
20260506024719 3 257 17.7 19.3 0.00 0.00 0.00 78 1010.5
20260506022719 3 266 17.7 19.3 0.00 0.00 0.00 74 1010.4
20260506020719 3 280 16.1 19.3 0.00 0.00 0.00 75 1010.2
20260506014719 3 275 17.7 24.1 0.00 0.00 0.00 76 1010.0
20260506012719 3 278 22.5 29.0 0.00 0.00 0.00 74 1009.9
20260506010719 3 282 24.1 29.0 0.00 0.00 0.00 76 1009.7
20260506004718 4 292 24.1 30.6 0.00 0.00 0.00 73 1009.5
20260506002718 4 293 25.7 30.6 0.00 0.00 0.00 73 1009.3
20260506000718 3 289 22.5 27.4 0.00 0.00 0.00 75 1009.3
20260505234719 3 283 24.1 27.4 0.00 0.00 0.00 76 1009.2
20260505232719 4 283 25.7 32.2 0.00 0.00 0.00 73 1009.0
20260505230718 4 282 25.7 30.6 0.00 0.00 0.00 73 1008.9
20260505224718 4 280 29.0 33.8 0.00 0.00 0.00 71 1008.7
20260505222718 4 275 29.0 32.2 0.00 0.00 0.00 71 1008.6
20260505220718 4 272 29.0 33.8 0.00 0.00 0.00 72 1008.5
20260505214718 5 271 30.6 35.4 0.00 0.00 0.00 69 1008.4
20260505212718 5 273 30.6 35.4 0.00 0.00 0.00 68 1008.2
20260505210718 5 275 24.1 30.6 0.00 0.00 0.00 68 1008.0
20260505204718 5 278 29.0 32.2 0.00 0.00 0.00 63 1007.7
20260505202718 5 278 29.0 33.8 0.00 0.00 0.00 62 1007.5
20260505200718 6 274 29.0 33.8 0.00 0.00 0.00 61 1007.3
20260505194717 6 273 30.6 35.4 0.00 0.00 0.00 60 1007.1
20260505192718 6 270 30.6 35.4 0.00 0.00 0.00 58 1007.0
20260505190717 6 268 30.6 35.4 0.00 0.00 0.00 55 1006.8
20260505184717 6 266 29.0 33.8 0.00 0.00 0.00 54 1006.7
20260505182717 7 266 27.4 33.8 0.00 0.00 0.00 55 1006.4
20260505180717 7 267 27.4 32.2 0.00 0.00 0.00 56 1006.3
20260505174717 7 261 29.0 33.8 0.00 0.00 0.00 57 1006.1
20260505172717 7 266 29.0 32.2 0.00 0.00 0.00 58 1006.0
20260505170717 7 268 30.6 33.8 0.00 0.00 0.00 52 1005.9
20260505164717 7 271 30.6 35.4 0.00 0.00 0.00 52 1005.8
20260505162717 7 247 32.2 37.0 0.00 0.00 0.00 62 1005.7
20260505160717 6 239 37.0 41.8 0.00 0.00 0.00 72 1005.6
20260505152716 6 235 35.4 41.8 0.00 0.00 0.00 77 1005.3
20260505150717 6 239 32.2 38.6 0.00 0.00 0.00 80 1005.3
20260505124716 7 234 35.4 41.8 0.00 0.00 0.00 76 1004.8
20260505122716 7 238 33.8 41.8 0.00 0.00 0.00 79 1004.6
20260505120716 7 231 30.6 48.3 0.00 0.00 0.00 74 1004.4
20260505114716 8 235 30.6 37.0 0.00 0.00 0.00 70 1004.1
20260505112716 8 242 32.2 43.5 0.00 0.00 0.00 68 1003.9
20260505110715 7 233 33.8 38.6 0.00 0.00 0.00 75 1003.5